Location: Taukkyan
(23.1052°N, 94.0030°E)
Time: 08:04:05
(UTC+00:00)

CZ-4B R/B - Pass Details

Date: 06 July 2020
Orbit: 390 x 465 km, 97.6° (Epoch: 05 August)

Event Time Altitude Azimuth Distance (km) Brightness Sun altitude
Rises 21:38:19 0° 145° (SE) 2,425 5.1 -17.9°
Reaches altitude 10° 21:40:32 10° 131° (SE) 1,571 4.3 -17.5°
Maximum altitude 21:43:21 25° 75° (ENE) 958 3.8 -17.0°
Drops below altitude 10° 21:46:13 10° 18° (NNE) 1,602 5.0 -16.4°
Sets 21:48:30 0° 5° (N) 2,486 5.8 -16.0°
